Lincoln Lakeshore

*Note: All times are displayed in the local standard time of the station location.
**Rain - Equipment is designed to accurately record liquid precipitation; under conditions when precipitation is not in liquid form, the data displayed may not properly reflect rainfall values.

Date Max Temp
(°C)
Min Temp
(°C)
Avg Temp
(°C)
Rain (mm) Avg RH (%)
Sat, Feb 17, 2018 -0.6 -5.5 -2.5 0.0 59.2
Fri, Feb 16, 2018 4.5 -5.3 0.2 0.0 73.0
Thu, Feb 15, 2018 9.1 3.7 6.3 0.0 94.0
Wed, Feb 14, 2018 6.0 -5.4 3.0 7.6 59.9
Tue, Feb 13, 2018 -1.0 -13.6 -6.4 0.2 59.8
Mon, Feb 12, 2018 -1.1 -9.4 -4.5 0.0 55.6
Sun, Feb 11, 2018 0.8 -3.3 -1.5 0.2 82.4
DateTime Avg Temp (°C) Rain (mm) RH (%)
Sun, Feb 18, 2018 04:00 -1.7 0.0 74.8
Sun, Feb 18, 2018 03:00 -1.6 0.0 73.3
Sun, Feb 18, 2018 02:00 -1.2 0.0 70.8
Sun, Feb 18, 2018 01:00 -1.2 0.0 75.0
Sun, Feb 18, 2018 00:00 -1.1 0.0 72.5
Sat, Feb 17, 2018 23:00 -1.0 0.0 66.0
Sat, Feb 17, 2018 22:00 -1.0 0.0 60.5
Sat, Feb 17, 2018 21:00 -1.1 0.0 60.0
Sat, Feb 17, 2018 20:00 -1.0 0.0 57.3
Sat, Feb 17, 2018 19:00 -1.2 0.0 52.5
Sat, Feb 17, 2018 18:00 -1.1 0.0 49.0
Sat, Feb 17, 2018 17:00 -0.9 0.0 49.3
Sat, Feb 17, 2018 16:00 -0.8 0.0 49.5
Sat, Feb 17, 2018 15:00 -0.8 0.0 50.0
Sat, Feb 17, 2018 14:00 -0.8 0.0 51.0
Sat, Feb 17, 2018 13:00 -0.8 0.0 50.3
Sat, Feb 17, 2018 12:00 -0.7 0.0 51.3
Sat, Feb 17, 2018 11:00 -1.3 0.0 52.8
Sat, Feb 17, 2018 10:00 -2.1 0.0 57.0
Sat, Feb 17, 2018 09:00 -3.6 0.0 62.0
Sat, Feb 17, 2018 08:00 -5.2 0.0 68.5
Sat, Feb 17, 2018 07:00 -5.3 0.0 68.8
Sat, Feb 17, 2018 06:00 -4.9 0.0 67.3
Sat, Feb 17, 2018 05:00 -4.8 0.0 66.5
Sat, Feb 17, 2018 04:00 -4.5 0.0 66.0
Sat, Feb 17, 2018 03:00 -5.2 0.0 65.0
Sat, Feb 17, 2018 02:00 -5.2 0.0 63.5
Sat, Feb 17, 2018 01:00 -5.3 0.0 64.3
Sat, Feb 17, 2018 00:00 -5.1 0.0 64.0
Fri, Feb 16, 2018 23:00 -4.9 0.0 63.3
Fri, Feb 16, 2018 22:00 -4.4 0.0 58.0
Fri, Feb 16, 2018 21:00 -3.4 0.0 54.0
Fri, Feb 16, 2018 20:00 -3.0 0.0 49.3
Fri, Feb 16, 2018 19:00 -2.7 0.0 47.5
Fri, Feb 16, 2018 18:00 -2.2 0.0 45.0
Fri, Feb 16, 2018 17:00 -1.0 0.0 47.5
Fri, Feb 16, 2018 16:00 0.3 0.0 50.8
Fri, Feb 16, 2018 15:00 1.2 0.0 49.8
Fri, Feb 16, 2018 14:00 1.4 0.0 53.3
Fri, Feb 16, 2018 13:00 1.6 0.0 56.5
Fri, Feb 16, 2018 12:00 1.7 0.0 63.3
Fri, Feb 16, 2018 11:00 1.6 0.0 84.8
Fri, Feb 16, 2018 10:00 1.5 0.0 89.3
Fri, Feb 16, 2018 09:00 1.4 0.0 89.0
Fri, Feb 16, 2018 08:00 1.3 0.0 92.3
Fri, Feb 16, 2018 07:00 1.8 0.0 96.3
Fri, Feb 16, 2018 06:00 2.3 0.0 100.0
Fri, Feb 16, 2018 05:00 2.6 0.0 97.8


asterix Register now to access more data! asterix